ZHONGXING-6E

Last updated on Thu Jul 03 2025 00:02:49 GMT+0000 (Coordinated Universal Time)

1 58253U 23172A 25183.62626867 -.00000354 00000+0 00000+0 0 9991 2 58253 0.0283 265.4470 0002716 58.3944 298.0408 1.00272969 6154
UTC large
Height (km)
Speed (km/s)
/
Latitude / Longitude
Inclination (degrees)
Orbital Period (minutes)
Azimuth
Elevation
Range (km)
Doppler Factor

Next 0 passes for location: London (51.5072 / 0.1276)

Sorry there are no passes over London.